• In Germany
  • List of Countries
  • For 7 days
  • Water Temperature
  • Satellite Maps
  • Weather Map
  • Weather Widgets
  • user-avatar
    Login

    Hourly Weather Río Gallegos

    Today, 20 November, Monday

    Time Temperature Precipitation Wind Pressure Humidity
    00:00 0°C° 0 mm 13 mps 751 mmHg 66%
    01:00 0°C° 0 mm 13 mps 752 mmHg 67%
    02:00 0°C° 0 mm 13 mps 752 mmHg 67%
    03:00 0°C° 0 mm 13 mps 753 mmHg 68%
    04:00 0°C° 0 mm 13 mps 754 mmHg 68%
    05:00 0°C° 0 mm 13 mps 754 mmHg 65%
    06:00 +1°C° 0 mm 14 mps 755 mmHg 61%
    07:00 +3°C° 0 mm 14 mps 755 mmHg 58%
    08:00 +4°C° 0 mm 13 mps 755 mmHg 55%
    09:00 +5°C° 0 mm 12 mps 756 mmHg 52%
    10:00 +7°C° 0 mm 11 mps 756 mmHg 49%
    11:00 +8°C° 0.1 mm 11 mps 756 mmHg 51%
    12:00 +9°C° 0.1 mm 10 mps 755 mmHg 53%
    13:00 +11°C° 0.1 mm 10 mps 755 mmHg 55%
    14:00 +9°C° 0.4 mm 10 mps 755 mmHg 59%
    15:00 +9°C° 0.4 mm 11 mps 755 mmHg 63%
    16:00 +9°C° 0.4 mm 11 mps 755 mmHg 67%
    17:00 +8°C° 0.1 mm 12 mps 755 mmHg 66%
    18:00 +8°C° 0.1 mm 12 mps 755 mmHg 66%
    19:00 +8°C° 0.1 mm 12 mps 755 mmHg 65%
    20:00 +7°C° 0 mm 13 mps 755 mmHg 68%
    21:00 +5°C° 0 mm 13 mps 756 mmHg 70%
    22:00 +4°C° 0 mm 13 mps 756 mmHg 72%
    23:00 +4°C° 0 mm 12 mps 756 mmHg 73%

    Tomorrow, 21 November, Tuesday

    Time Temperature Precipitation Wind Pressure Humidity
    00:00 +4°C° 0 mm 11 mps 756 mmHg 73%
    01:00 +4°C° 0 mm 11 mps 755 mmHg 73%
    02:00 +5°C° 0 mm 10 mps 755 mmHg 73%
    03:00 +5°C° 0 mm 10 mps 755 mmHg 74%
    04:00 +5°C° 0 mm 10 mps 755 mmHg 74%
    05:00 +6°C° 0 mm 10 mps 755 mmHg 71%
    06:00 +7°C° 0 mm 11 mps 755 mmHg 69%
    07:00 +8°C° 0 mm 12 mps 755 mmHg 66%
    08:00 +9°C° 0 mm 11 mps 755 mmHg 65%
    09:00 +9°C° 0 mm 11 mps 754 mmHg 64%
    10:00 +11°C° 0 mm 11 mps 754 mmHg 62%
    11:00 +11°C° 0.4 mm 11 mps 754 mmHg 65%
    12:00 +11°C° 0.4 mm 11 mps 754 mmHg 67%
    13:00 +9°C° 0.4 mm 11 mps 753 mmHg 69%
    14:00 +11°C° 0.4 mm 11 mps 753 mmHg 69%
    15:00 +11°C° 0.4 mm 11 mps 753 mmHg 68%
    16:00 +10°C° 0.4 mm 12 mps 753 mmHg 68%
    17:00 +10°C° 0.2 mm 12 mps 753 mmHg 67%
    18:00 +9°C° 0.2 mm 12 mps 753 mmHg 67%
    19:00 +8°C° 0.2 mm 12 mps 753 mmHg 67%
    20:00 +8°C° 0.1 mm 12 mps 753 mmHg 68%
    21:00 +7°C° 0.1 mm 12 mps 752 mmHg 70%
    22:00 +7°C° 0.1 mm 12 mps 752 mmHg 72%
    23:00 +7°C° 0 mm 11 mps 752 mmHg 74%

    Day after tomorrow, 22 November, Wednesday

    Time Temperature Precipitation Wind Pressure Humidity
    00:00 +7°C° 0 mm 11 mps 752 mmHg 76%
    01:00 +6°C° 0 mm 11 mps 752 mmHg 78%
    02:00 +6°C° 0 mm 10 mps 752 mmHg 78%
    03:00 +6°C° 0 mm 9 mps 752 mmHg 77%
    04:00 +6°C° 0 mm 9 mps 751 mmHg 77%
    05:00 +7°C° 0 mm 11 mps 751 mmHg 72%
    06:00 +8°C° 0 mm 12 mps 751 mmHg 67%
    07:00 +9°C° 0 mm 14 mps 751 mmHg 62%
    08:00 +9°C° 0 mm 14 mps 751 mmHg 59%
    09:00 +10°C° 0 mm 14 mps 750 mmHg 57%
    10:00 +10°C° 0 mm 13 mps 750 mmHg 54%
    11:00 +10°C° 0 mm 14 mps 749 mmHg 51%
    12:00 +10°C° 0 mm 15 mps 749 mmHg 48%
    13:00 +11°C° 0 mm 16 mps 748 mmHg 45%
    14:00 +9°C° 0 mm 17 mps 748 mmHg 47%
    15:00 +7°C° 0 mm 18 mps 749 mmHg 49%
    16:00 +6°C° 0 mm 20 mps 749 mmHg 51%
    17:00 +5°C° 0 mm 19 mps 750 mmHg 50%
    18:00 +3°C° 0 mm 18 mps 751 mmHg 48%
    19:00 +2°C° 0 mm 17 mps 752 mmHg 47%
    20:00 +1°C° 0 mm 16 mps 753 mmHg 49%
    21:00 +1°C° 0 mm 15 mps 753 mmHg 51%
    22:00 0°C° 0 mm 14 mps 754 mmHg 53%
    23:00 0°C° 0 mm 14 mps 754 mmHg 56%

    23 November, Thursday

    Time Temperature Precipitation Wind Pressure Humidity
    00:00 -1°C° 0 mm 13 mps 755 mmHg 58%
    01:00 -1°C° 0 mm 13 mps 755 mmHg 61%
    02:00 -1°C° 0 mm 13 mps 755 mmHg 61%
    03:00 -1°C° 0 mm 13 mps 756 mmHg 61%
    04:00 -1°C° 0 mm 13 mps 756 mmHg 60%
    05:00 0°C° 0 mm 13 mps 756 mmHg 57%
    06:00 +1°C° 0 mm 14 mps 756 mmHg 54%
    07:00 +3°C° 0 mm 14 mps 756 mmHg 50%
    08:00 +3°C° 0 mm 14 mps 756 mmHg 50%
    09:00 +4°C° 0 mm 13 mps 756 mmHg 50%
    10:00 +5°C° 0 mm 13 mps 755 mmHg 51%
    11:00 +7°C° 0 mm 13 mps 755 mmHg 52%
    12:00 +7°C° 0 mm 13 mps 754 mmHg 53%
    13:00 +8°C° 0 mm 12 mps 753 mmHg 54%
    14:00 +8°C° 0.1 mm 13 mps 753 mmHg 55%
    15:00 +8°C° 0.1 mm 13 mps 752 mmHg 57%
    16:00 +8°C° 0.1 mm 13 mps 752 mmHg 58%
    17:00 +8°C° 0 mm 13 mps 751 mmHg 59%
    18:00 +8°C° 0 mm 13 mps 751 mmHg 60%
    19:00 +8°C° 0 mm 14 mps 751 mmHg 61%
    20:00 +7°C° 0 mm 13 mps 750 mmHg 63%
    21:00 +7°C° 0 mm 13 mps 750 mmHg 64%
    22:00 +5°C° 0 mm 13 mps 750 mmHg 66%
    23:00 +5°C° 0 mm 12 mps 749 mmHg 67%

    24 November, Friday

    Time Temperature Precipitation Wind Pressure Humidity
    00:00 +5°C° 0 mm 12 mps 749 mmHg 67%
    01:00 +6°C° 0 mm 11 mps 748 mmHg 68%
    02:00 +6°C° 0 mm 11 mps 748 mmHg 68%
    03:00 +7°C° 0 mm 11 mps 747 mmHg 69%
    04:00 +7°C° 0 mm 11 mps 747 mmHg 69%
    05:00 +8°C° 0 mm 12 mps 746 mmHg 64%
    06:00 +9°C° 0 mm 14 mps 746 mmHg 59%
    07:00 +10°C° 0 mm 15 mps 745 mmHg 54%
    08:00 +13°C° 0 mm 16 mps 744 mmHg 50%
    09:00 +14°C° 0 mm 16 mps 744 mmHg 46%
    10:00 +15°C° 0 mm 17 mps 743 mmHg 43%
    11:00 +15°C° 0 mm 18 mps 742 mmHg 44%
    12:00 +15°C° 0 mm 19 mps 742 mmHg 45%
    13:00 +15°C° 0 mm 20 mps 742 mmHg 46%
    14:00 +14°C° 0 mm 20 mps 742 mmHg 48%
    15:00 +11°C° 0 mm 20 mps 743 mmHg 51%
    16:00 +10°C° 0 mm 21 mps 743 mmHg 54%
    17:00 +7°C° 0 mm 20 mps 745 mmHg 52%
    18:00 +6°C° 0 mm 19 mps 746 mmHg 51%
    19:00 +3°C° 0 mm 18 mps 747 mmHg 49%
    20:00 +3°C° 0 mm 17 mps 748 mmHg 51%
    21:00 +2°C° 0 mm 16 mps 748 mmHg 53%
    22:00 +2°C° 0 mm 16 mps 749 mmHg 54%
    23:00 +1°C° 0 mm 15 mps 749 mmHg 56%

    25 November, Saturday

    Time Temperature Precipitation Wind Pressure Humidity
    00:00 +1°C° 0 mm 14 mps 749 mmHg 57%
    01:00 +1°C° 0 mm 13 mps 750 mmHg 59%
    02:00 +2°C° 0 mm 12 mps 750 mmHg 61%
    03:00 +2°C° 0 mm 11 mps 750 mmHg 62%
    04:00 +2°C° 0 mm 10 mps 750 mmHg 64%
    05:00 +3°C° 0 mm 9 mps 750 mmHg 62%
    06:00 +5°C° 0 mm 8 mps 750 mmHg 61%
    07:00 +7°C° 0 mm 6 mps 750 mmHg 59%
    08:00 +5°C° 1.2 mm 6 mps 749 mmHg 65%
    09:00 +6°C° 1.2 mm 5 mps 748 mmHg 71%
    10:00 +6°C° 1.2 mm 5 mps 747 mmHg 77%
    11:00 +5°C° 1.1 mm 6 mps 746 mmHg 77%
    12:00 +6°C° 1.1 mm 8 mps 744 mmHg 76%
    13:00 +7°C° 1.1 mm 9 mps 743 mmHg 76%
    14:00 +9°C° 0.3 mm 8 mps 742 mmHg 73%
    15:00 +11°C° 0.3 mm 8 mps 742 mmHg 71%
    16:00 +14°C° 0.3 mm 7 mps 741 mmHg 68%
    17:00 +12°C° 0.1 mm 7 mps 740 mmHg 68%
    18:00 +13°C° 0.1 mm 6 mps 740 mmHg 67%
    19:00 +13°C° 0.1 mm 6 mps 739 mmHg 67%
    20:00 +12°C° 0 mm 7 mps 738 mmHg 66%
    21:00 +11°C° 0 mm 7 mps 737 mmHg 64%
    22:00 +11°C° 0 mm 8 mps 737 mmHg 63%
    23:00 +11°C° 0 mm 7 mps 736 mmHg 65%
    Show more